User: anonymous
Location: Bakersfield
(35.3730°N, 119.0180°W)
Time: 22:42:21
(UTC-07:00)
Language:

Cosmos 1222 Rocket - Orbit

View from above orbital plane
View from above orbital plane
View from above satellite
View from above satellite

Ground track
Ground track

The orbit data is extracted from the following two-line orbital elements,

1 12072U 80093B   14109.16995860  .00045279  00000-0  70277-3 0   816
2 12072 081.1898 039.5171 0013281 197.5686 162.5106 15.53679924836933
Epoch (UTC): 19 April 2014 04:04:44
Eccentricity: 0.0013281
inclination: 81.1898°
perigee height: 397 km
apogee height: 415 km
right ascension of ascending node: 39.5171°
argument of perigee: 197.5686°
revolutions per day: 15.53679924
mean anomaly at epoch: 162.5106°
orbit number at epoch: 83693

The dashed part of the orbit path shows where the satellite is in the earth's shadow,  

DLR